Retour au catalogue

STARLINK-11555

ActifCommunicationsVLEO
NORAD 62915·PAYLOAD·🇺🇸 United States

Lancé Feb 8, 2025 depuis Cape Canaveral Space Force Station

Loading…

Prochains Passages (prochaines 24 heures)

TLE

FraisSource: CelesTrak SupGP

Époque: Sep 14, 2026, 20:37 UTC

1 62915C 25027J   26257.85951389 -.00068217  00000+0 -52998-3 0  2577
2 62915  43.0007 287.6777 0001548 253.7478 357.5461 15.70866145    12

Suivez STARLINK-11555 en temps réel avec AllMySat

Download on the App Store